Hourly Data Report for March 30, 2012

BAGOTVILLE A
QUEBEC

48°20'00.000" N
71°00'00.000" W
159.10 m
7060400
71727
YBG

Download Data

Hourly Data (March 2012)
Hourly Data Report for March 30, 2012
TIME
LST
Temp Definition
°C
Dew Point Definition
°C
Rel Hum Definition
%
Precip. Amount Definition
mm

Wind Dir Definition
10's deg

Wind Spd Definition
km/h
Visibility Definition
km
Stn Press Definition
kPa
Hmdx Definition


Wind Chill Definition


Weather Definition


00:00 -2.2 -7.0 70   30 37 9.7 99.14   -10 Snow Showers
01:00 -3.2 -6.3 79   28 24 4.8 99.16   -10 Snow Showers
02:00 -4.4 -6.8 83   28 30 2.4 99.17   -12 Snow
03:00 -5.0 -8.2 78   29 32 6.4 99.22   -13 Snow
04:00 -6.0 -8.8 81   28 33 3.2 99.28   -15 Snow
05:00 -6.6 -10.3 75   28 30 9.7 99.34   -15 Snow
06:00 -6.9 -9.9 79   28 33 1.6 99.41   -16 Snow,Blowing Snow
07:00 -6.8 -10.1 77   29 28 24.1 99.45   -15 Mostly Cloudy
08:00 -6.0 -10.3 72   29 35 24.1 99.54   -15 Mostly Cloudy
09:00 -6.0 -10.3 72   29 35 24.1 99.65   -15 Snow Showers
10:00 -5.2 -9.2 73   30 33 24.1 99.69   -14 Snow Showers
11:00 -4.1 -9.2 68   29 28 32.2 99.69   -12 Mainly Clear
12:00 -2.6 -7.9 67   27 28 40.2 99.60   -10 Mainly Clear
13:00 -1.2 -6.6 67   29 35 40.2 99.54   -9 Mainly Clear
14:00 -0.6 -4.5 75   29 35 40.2 99.51   -8 Mainly Clear
15:00 0.3 -9.6 47   29 32 40.2 99.46     Mainly Clear
16:00 0.7 -10.1 44   30 39 40.2 99.45     Mainly Clear
17:00 0.9 -8.5 49   28 30 40.2 99.46     Mainly Clear
18:00 0.4 -9.0 49   28 24 40.2 99.49     Clear
19:00 -0.4 -9.9 49   28 19 24.1 99.56   -6 Clear
20:00 -1.2 -9.2 54   28 17 24.1 99.61   -6 Clear
21:00 -2.0 -9.7 56   28 15 24.1 99.64   -7 Clear
22:00 -3.1 -9.7 60   27 13 24.1 99.69   -8 Clear
23:00 -4.0 -9.8 64   27 13 24.1 99.71   -9 Clear

Notes on Data Quality.

Legend

  • E = Estimated
  • M = Missing
  • NA = Not Available*
  • [empty] = Indicates an unobserved value
Date modified: